星链-11206 (STARLINK-11206)

导读 | 豆包AI

STARLINK-11206是美国SpaceX公司星链星座的卫星,于2024年7月28日,由猎鹰9号火箭在美国范登堡发射场成功发射。它属于Starlink Group 9-4任务的21颗星链卫星之一,是第二代迷你版星链。该卫星旨在补充星链星座,为全球用户提供高速低延迟卫星互联网服务,进一步完善星链巨型星座布局。

Basic Information
目录编号:
60312
目录名称:
STARLINK-11206
国际标识:
2024-133M
轨道中心:
EARTH
卫星名称:
星链-11206 (STARLINK-11206)
卫星全名:
星链-11206 (STARLINK-11206)
卫星状态:
在轨 (已飞行595 天)
发射日期:
2024-07-28 UTC
国别 :
美国 (US)
星等 :
--
Orbit Information
数据来源 国际轨道数据
星历时间: 2026-03-14T16:43:04+0800
1天前
查看轨道信息
半长轴: 6737.865km
偏心率: 0.0001141
轨道倾角: 53.158°
近地点辐角 89.190°
升交点赤经 123.510°
平近点角 270.925°
近地点: 358.959km
远地点: 360.497km
周期: 91.737分钟
每日圈数: 15.697096
Detailed Information
卫星平台:
Starlink v2.0 mini
运营商:
太空探索技术公司
运营商所在国:
美国
制造商(研发单位):
太空探索技术公司
制造商所在国:
美国
使用方式:
暂无
Satellite Introduction
星链(Starlink)计划是由太空探索技术公司(SpaceX)提出的一个巨型低轨卫星互联网星座项目,计划在2019年至2024年间在太空搭建由约1.2万颗卫星组成的“星链”网络,其中1584颗将部署在地球上空550千米处的近地轨道,并从2020年开始工作。该卫星仍在工作。
2D Orbit Map
3D Orbit Map
Orbit Altitude Analysis Chart
Orbit Inclination Analysis Chart
Orbit Comprehensive Analysis Chart
View Comprehensive Chart